Regional Weather Roundup
Issued by NWS Kansas City/Pleasant Hill, MO

Home | Current Version | Previous Version | Text Only | Print | Product List | Glossary On
Versions: 1 2 3 4 5 6 7 8 9 10 11 12 13 14 15 16 17 18 19 20 21 22 23 24 25 26 27 28 29 30 31 32 33 34 35 36 37 38 39 40 41 42 43 44 45 46 47 48 49 50
297
ASUS43 KEAX 211210
RWREAX

WEATHER ROUNDUP FOR EASTERN KANSAS AND NORTHWEST MISSOURI
NATIONAL WEATHER SERVICE KANSAS CITY/PLEASANT HILL MO
700 AM CDT SAT OCT 21 2017

KSZ040-057-103>105-MOZ028-029-037-043-211300-
...KANSAS CITY METROPOLITAN AREA...

CITY           SKY/WX    TMP DP  RH WIND       PRES   REMARKS
K.C. INTL      CLOUDY    66  58  75 S24G32    29.82R
6HR MIN TEMP:  63; 6HR MAX TEMP:  66;

K.C. DOWNTOWN  CLOUDY    67  58  72 S14G26    29.84R
6HR MIN TEMP:  66; 6HR MAX TEMP:  68;

LEES SUMMIT    CLOUDY    64  56  75 S21G29    29.87R
6HR MIN TEMP:  63; 6HR MAX TEMP:  65;

OLATHE - IXD   CLOUDY    65  58  78 S20G29    29.85R
6HR MIN TEMP:  62; 6HR MAX TEMP:  66;

OLATHE - OJC   CLOUDY    63  57  81 S15       29.85S
6HR MIN TEMP:  61; 6HR MAX TEMP:  64;

LAWRENCE       CLOUDY    67  60  78 SE21G33   29.80F

$$

MOZ001>008-011>017-020>025-030>033-038>040-044>046-053-054-211300-
...NORTHERN AND CENTRAL MISSOURI...

CITY           SKY/WX    TMP DP  RH WIND       PRES   REMARKS
ST. JOSEPH     LGT RAIN  66  60  81 S15G30    29.78S
6HR MIN TEMP:  66; 6HR MAX TEMP:  68; 6HR PCP: TRACE;

MOSBY          CLOUDY    66  54  63 S12G23    29.85S
WARRENSBURG    PTCLDY    63  54  72 S10       29.89R
WHITEMAN AFB   PTCLDY    63  55  76 S12       29.86S
6HR MIN TEMP:  63; 6HR MAX TEMP:  64;

CLINTON        MOCLDY    64  55  72 S10       29.92S
SEDALIA        CLOUDY    64  58  80 S14       29.93S
6HR MIN TEMP:  64; 6HR MAX TEMP:  66;

WARSAW         NOT AVBL
CHILLICOTHE      N/A     64  57  78 S9G20     29.88R
6HR MIN TEMP:  64; 6HR MAX TEMP:  66;

KIRKSVILLE     CLEAR     62  57  83 S14       29.91F
6HR MIN TEMP:  61; 6HR MAX TEMP:  65;


$$

MOZ041-047>049-056>058-063>065-088>090-097-211300-
...EASTERN AND SOUTHERN MISSOURI...

CITY           SKY/WX    TMP DP  RH WIND       PRES   REMARKS
ST. LOUIS INTL MOCLDY    63  54  72 SE12      30.04F
6HR MIN TEMP:  62; 6HR MAX TEMP:  66; 6HR PCP: TRACE;

SPIRIT OF STL  LGT RAIN  65  55  70 S5        30.02S
COLUMBIA       CLEAR     62  55  77 S12       29.96S
JEFFERSON CITY PTCLDY    64  54  69 SE5       29.97R
ROLLA          CLOUDY    65  57  75 S17       30.01S
OSAGE BEACH    CLEAR     63  56  78 S10       29.97S
SPRINGFIELD    PTCLDY    62  57  83 S17G25    29.95S
BRANSON        PTCLDY    63  57  82 SE7       30.00S
JOPLIN         MOCLDY    65  60  84 S16       29.92R
WEST PLAINS    LGT RAIN  62  58  86 SE6       30.07S

$$

IAZ060-094-KSZ022-034>040-054-083-096-NEZ052-066-093-211300-
...KANSAS...SOUTHEAST NEBRASKA AND IOWA...

CITY           SKY/WX    TMP DP  RH WIND       PRES   REMARKS
TOPEKA         CLOUDY    68  61  78 S18G32    29.76S
6HR MIN TEMP:  67; 6HR MAX TEMP:  68;

MANHATTAN      CLOUDY    68  62  81 S17G24    29.69F
EMPORIA        CLOUDY    64  59  83 S22G32    29.78R
CHANUTE        CLOUDY    66  59  78 S20G32    29.87S
WICHITA        CLOUDY    69  65  86 S21G30    29.74S
OMAHA          CLOUDY    67  61  81 S17       29.62S
LINCOLN        CLOUDY    69  62  78 S23G30    29.59S
FALLS CITY     CLOUDY    67  60  78 S24G33    29.70S
LAMONI         LGT RAIN  63  56  78 S16G26    29.81S
DES MOINES     CLOUDY    65  57  75 S18G26    29.77R

$$





USA.gov is the U.S. government's official web portal to all federal, state and local government web resources and services.